| time (UTC) | temp C | wind direction | speed KPH | gust KPH | rain 1hr cm | rain 24hr cm | rain mn cm | humidity % | barometer mb |
| 20260510191602 | 19 | 163 | 0.0 | 1.6 | 0.00 | 0.38 | 0.00 | 68 | 1011.0 |
| 20260510190100 | 20 | 111 | 0.0 | 3.2 | 0.00 | 0.38 | 0.00 | 68 | 1011.0 |
| 20260510184604 | 20 | 171 | 0.0 | 1.6 | 0.00 | 0.51 | 0.00 | 69 | 1010.8 |
| 20260510183054 | 20 | 140 | 0.0 | 3.2 | 0.00 | 0.51 | 0.00 | 68 | 1010.6 |
| 20260510181607 | 21 | 174 | 0.0 | 6.4 | 0.00 | 0.51 | 0.00 | 67 | 1010.8 |
| 20260510180103 | 21 | 140 | 3.2 | 6.4 | 0.00 | 0.51 | 0.00 | 63 | 1010.7 |
| 20260510174549 | 21 | 156 | 0.0 | 4.8 | 0.00 | 0.56 | 0.00 | 64 | 1010.9 |
| 20260510173049 | 20 | 168 | 3.2 | 6.4 | 0.00 | 0.56 | 0.00 | 70 | 1010.8 |
| 20260510171549 | 20 | 68 | 3.2 | 11.3 | 0.00 | 0.56 | 0.00 | 67 | 1011.1 |
| 20260510170014 | 20 | 344 | 0.0 | 3.2 | 0.00 | 0.56 | 0.00 | 68 | 1011.1 |
| 20260510164523 | 20 | 14 | 1.6 | 6.4 | 0.00 | 0.61 | 0.00 | 69 | 1011.0 |
| 20260510163010 | 20 | 11 | 0.0 | 6.4 | 0.00 | 0.61 | 0.00 | 71 | 1011.1 |
| 20260510161506 | 19 | 140 | 3.2 | 9.7 | 0.00 | 0.61 | 0.00 | 74 | 1011.2 |
| 20260510160005 | 19 | 196 | 3.2 | 8.0 | 0.00 | 0.61 | 0.00 | 73 | 1011.3 |
| 20260510154504 | 20 | 133 | 3.2 | 8.0 | 0.00 | 0.64 | 0.00 | 71 | 1011.4 |
| 20260510153102 | 19 | 140 | 0.0 | 12.9 | 0.00 | 0.64 | 0.00 | 74 | 1011.3 |
| 20260510151557 | 19 | 129 | 0.0 | 12.9 | 0.00 | 0.64 | 0.00 | 76 | 1011.4 |
| 20260510150119 | 18 | 168 | 1.6 | 8.0 | 0.00 | 0.64 | 0.00 | 79 | 1011.1 |
| 20260510144547 | 17 | 157 | 0.0 | 11.3 | 0.00 | 0.66 | 0.00 | 82 | 1011.1 |
| 20260510143043 | 17 | 162 | 3.2 | 11.3 | 0.00 | 0.66 | 0.00 | 83 | 1011.3 |
| 20260510141541 | 16 | 156 | 3.2 | 11.3 | 0.00 | 0.66 | 0.00 | 83 | 1011.2 |
| 20260510140037 | 16 | 149 | 6.4 | 12.9 | 0.00 | 0.66 | 0.00 | 85 | 1011.1 |
| 20260510134532 | 15 | 144 | 4.8 | 12.9 | 0.00 | 0.66 | 0.00 | 88 | 1011.0 |
| 20260510133027 | 15 | 149 | 3.2 | 6.4 | 0.00 | 0.66 | 0.00 | 91 | 1011.3 |
| 20260510131623 | 13 | 133 | 4.8 | 11.3 | 0.00 | 0.66 | 0.00 | 94 | 1011.3 |
| 20260510130022 | 13 | 166 | 0.0 | 4.8 | 0.00 | 0.66 | 0.00 | 98 | 1011.4 |
| 20260510124526 | 12 | 171 | 3.2 | 8.0 | 0.00 | 0.69 | 0.00 | 98 | 1011.4 |
| 20260510123013 | 11 | 149 | 0.0 | 3.2 | 0.00 | 0.69 | 0.00 | 99 | 1011.2 |
| 20260510121509 | 11 | 163 | 0.0 | 0.0 | 0.00 | 0.69 | 0.00 | 98 | 1011.2 |
| 20260510120018 | 10 | 163 | 0.0 | 0.0 | 0.00 | 0.69 | 0.00 | 98 | 1011.0 |
| 20260510114513 | 10 | 163 | 0.0 | 0.0 | 0.00 | 0.69 | 0.00 | 98 | 1011.0 |
| 20260510113001 | 10 | 163 | 0.0 | 0.0 | 0.00 | 0.69 | 0.00 | 98 | 1010.8 |
| 20260510111606 | 10 | 163 | 0.0 | 0.0 | 0.00 | 0.69 | 0.00 | 98 | 1010.8 |
| 20260510110059 | 10 | 163 | 0.0 | 0.0 | 0.00 | 0.69 | 0.00 | 98 | 1010.6 |
| 20260510104608 | -17 | 0.0 | 0.0 | 0.00 | 0.69 | 0.00 | 1010.5 | ||
| 20260510103104 | -17 | 0.0 | 0.0 | 0.00 | 0.69 | 0.00 | 1010.3 | ||
| 20260510101600 | -17 | 0.0 | 0.0 | 0.00 | 0.69 | 0.00 | 1010.4 | ||
| 20260510100056 | -17 | 0.0 | 0.0 | 0.00 | 0.69 | 0.00 | 1010.1 | ||
| 20260510094607 | -17 | 0.0 | 0.0 | 0.00 | 0.69 | 0.00 | 1010.0 | ||
| 20260510093100 | -17 | 0.0 | 0.0 | 0.00 | 0.69 | 0.00 | 1009.9 | ||
| 20260510091544 | -17 | 0.0 | 0.0 | 0.00 | 0.69 | 0.00 | 1009.7 | ||
| 20260510090038 | -17 | 0.0 | 0.0 | 0.00 | 0.69 | 0.00 | 1009.4 | ||
| 20260510084535 | -17 | 0.0 | 0.0 | 0.00 | 0.69 | 0.00 | 1009.7 | ||
| 20260510083048 | 9 | 153 | 0.0 | 3.2 | 0.00 | 0.69 | 0.00 | 98 | 1009.9 |
| 20260510081526 | 10 | 139 | 1.6 | 3.2 | 0.00 | 0.69 | 0.00 | 98 | 1010.0 |
| 20260510080027 | 10 | 156 | 0.0 | 3.2 | 0.00 | 0.69 | 0.00 | 98 | 1010.1 |
| 20260510074523 | 10 | 143 | 0.0 | 3.2 | 0.00 | 0.71 | 0.00 | 98 | 1010.2 |
| 20260510073023 | 10 | 159 | 0.0 | 1.6 | 0.00 | 0.71 | 0.00 | 98 | 1010.7 |
| 20260510071527 | 10 | 126 | 0.0 | 0.0 | 0.00 | 0.71 | 0.00 | 98 | 1010.6 |
| 20260510064517 | 10 | 170 | 0.0 | 0.0 | 0.00 | 0.71 | 0.00 | 98 | 1010.4 |
| 20260510063017 | 10 | 170 | 0.0 | 0.0 | 0.00 | 0.71 | 0.00 | 98 | 1010.2 |
| 20260510061547 | 10 | 142 | 0.0 | 0.0 | 0.00 | 0.71 | 0.00 | 98 | 1010.1 |
| 20260510060047 | 10 | 142 | 0.0 | 1.6 | 0.00 | 0.71 | 0.00 | 98 | 1010.1 |
| 20260510054543 | 10 | 140 | 0.0 | 1.6 | 0.00 | 0.71 | 0.00 | 98 | 1010.2 |
| 20260510053042 | 10 | 140 | 0.0 | 0.0 | 0.00 | 0.71 | 0.00 | 97 | 1010.2 |
| 20260510051540 | 10 | 140 | 0.0 | 0.0 | 0.00 | 0.71 | 0.00 | 97 | 1010.0 |
| 20260510050040 | 10 | 140 | 0.0 | 0.0 | 0.00 | 0.71 | 0.00 | 97 | 1009.8 |
| 20260510044541 | 10 | 140 | 0.0 | 0.0 | 0.00 | 0.71 | 0.00 | 97 | 1009.9 |
| 20260510043039 | 10 | 140 | 0.0 | 0.0 | 0.00 | 0.71 | 0.00 | 97 | 1009.9 |
| 20260510041540 | 10 | 140 | 0.0 | 0.0 | 0.00 | 0.71 | 0.00 | 97 | 1010.0 |
| 20260510040031 | 10 | 140 | 0.0 | 1.6 | 0.00 | 0.71 | 0.00 | 97 | 1009.7 |
| 20260510034529 | 10 | 140 | 0.0 | 0.0 | 0.00 | 0.71 | 0.71 | 97 | 1009.9 |
| 20260510033028 | 10 | 140 | 0.0 | 0.0 | 0.00 | 0.71 | 0.71 | 97 | 1009.7 |
| 20260510031517 | 10 | 141 | 0.0 | 0.0 | 0.00 | 0.71 | 0.71 | 97 | 1009.9 |
| 20260510030019 | 9 | 140 | 0.0 | 0.0 | 0.00 | 0.71 | 0.71 | 97 | 1010.1 |
| 20260510024516 | 9 | 140 | 0.0 | 0.0 | 0.00 | 0.71 | 0.71 | 97 | 1010.0 |
| 20260510023016 | 9 | 141 | 0.0 | 0.0 | 0.00 | 0.71 | 0.71 | 97 | 1009.8 |
| 20260510021516 | 10 | 140 | 0.0 | 0.0 | 0.00 | 0.71 | 0.71 | 96 | 1009.6 |
| 20260510020016 | 10 | 140 | 0.0 | 0.0 | 0.00 | 0.71 | 0.71 | 96 | 1009.7 |
| 20260510014516 | 10 | 163 | 0.0 | 0.0 | 0.00 | 0.71 | 0.71 | 96 | 1009.9 |
| 20260510013015 | 10 | 163 | 0.0 | 0.0 | 0.00 | 0.71 | 0.71 | 96 | 1009.8 |
| 20260510011517 | 10 | 163 | 0.0 | 0.0 | 0.00 | 0.71 | 0.71 | 95 | 1009.4 |
| 20260510010015 | 10 | 163 | 0.0 | 0.0 | 0.00 | 0.71 | 0.71 | 96 | 1009.6 |
| 20260510004514 | 10 | 163 | 0.0 | 0.0 | 0.00 | 0.71 | 0.71 | 95 | 1009.3 |
| 20260510003023 | 10 | 163 | 0.0 | 0.0 | 0.00 | 0.71 | 0.71 | 94 | 1009.0 |
| 20260510001554 | 11 | 163 | 0.0 | 0.0 | 0.00 | 0.71 | 0.71 | 94 | 1008.7 |
| 20260510000055 | 11 | 163 | 0.0 | 1.6 | 0.00 | 0.71 | 0.71 | 94 | 1008.6 |
| 20260509234651 | 12 | 168 | 0.0 | 4.8 | 0.00 | 0.71 | 0.71 | 93 | 1008.5 |
| 20260509233051 | 12 | 165 | 0.0 | 4.8 | 0.00 | 0.71 | 0.71 | 94 | 1008.6 |
| 20260509231550 | 12 | 161 | 0.0 | 1.6 | 0.00 | 0.71 | 0.71 | 94 | 1008.6 |
| 20260509230052 | 12 | 137 | 0.0 | 1.6 | 0.00 | 0.71 | 0.71 | 94 | 1008.6 |
| 20260509224550 | 12 | 140 | 0.0 | 4.8 | 0.00 | 0.71 | 0.71 | 95 | 1008.7 |
| 20260509223051 | 12 | 143 | 0.0 | 3.2 | 0.00 | 0.71 | 0.71 | 95 | 1008.5 |
| 20260509221547 | 12 | 138 | 0.0 | 6.4 | 0.00 | 0.71 | 0.71 | 95 | 1008.6 |
| 20260509220046 | 12 | 171 | 0.0 | 4.8 | 0.00 | 0.71 | 0.71 | 95 | 1008.7 |
| 20260509214543 | 12 | 142 | 1.6 | 6.4 | 0.03 | 0.71 | 0.71 | 96 | 1008.7 |
| 20260509213045 | 12 | 144 | 1.6 | 4.8 | 0.08 | 0.71 | 0.71 | 96 | 1008.8 |
| 20260509211541 | 12 | 164 | 0.0 | 3.2 | 0.13 | 0.71 | 0.71 | 96 | 1008.8 |
| 20260509210053 | 11 | 166 | 0.0 | 4.8 | 0.15 | 0.69 | 0.69 | 96 | 1008.9 |
| 20260509204540 | 11 | 168 | 0.0 | 1.6 | 0.20 | 0.69 | 0.69 | 95 | 1009.3 |
| 20260509203040 | 11 | 168 | 0.0 | 1.6 | 0.18 | 0.64 | 0.64 | 95 | 1009.6 |
| 20260509201532 | 11 | 187 | 0.0 | 3.2 | 0.15 | 0.56 | 0.56 | 95 | 1009.7 |
| 20260509200031 | 12 | 127 | 3.2 | 8.0 | 0.18 | 0.53 | 0.53 | 95 | 1009.8 |
| 20260509194531 | 12 | 106 | 0.0 | 6.4 | 0.15 | 0.48 | 0.48 | 95 | 1010.0 |
| 20260509193029 | 12 | 177 | 3.2 | 9.7 | 0.15 | 0.46 | 0.46 | 94 | 1010.2 |